| time (UTC) | temp F | wind direction | speed MPH | gust MPH | rain 1hr in | rain 24hr in | rain mn in | humidity % | barometer mb |
| 20260510185502 | 84 | 238 | 2.0 | 4.0 | 0.00 | 0.00 | 0.00 | 35 | 1016.0 |
| 20260510185004 | 84 | 257 | 2.0 | 4.0 | 0.00 | 0.00 | 0.00 | 37 | 1016.1 |
| 20260510184002 | 85 | 265 | 3.0 | 8.0 | 0.00 | 0.00 | 0.00 | 34 | 1016.1 |
| 20260510183502 | 84 | 211 | 3.0 | 8.0 | 0.00 | 0.00 | 0.00 | 37 | 1016.0 |
| 20260510182504 | 84 | 307 | 2.0 | 5.0 | 0.00 | 0.00 | 0.00 | 35 | 1016.1 |
| 20260510182001 | 84 | 244 | 2.0 | 4.0 | 0.00 | 0.00 | 0.00 | 37 | 1016.1 |
| 20260510181502 | 84 | 260 | 2.0 | 4.0 | 0.00 | 0.00 | 0.00 | 37 | 1016.1 |
| 20260510180504 | 84 | 296 | 2.0 | 9.0 | 0.00 | 0.00 | 0.00 | 36 | 1016.3 |
| 20260510180008 | 85 | 198 | 2.0 | 5.0 | 0.00 | 0.00 | 0.00 | 42 | 1016.3 |
| 20260510175502 | 84 | 174 | 2.0 | 6.0 | 0.00 | 0.00 | 0.00 | 39 | 1016.3 |
| 20260510175002 | 84 | 290 | 1.0 | 4.0 | 0.00 | 0.00 | 0.00 | 38 | 1016.4 |
| 20260510174004 | 84 | 118 | 2.0 | 4.0 | 0.00 | 0.00 | 0.00 | 43 | 1016.3 |
| 20260510173502 | 82 | 180 | 2.0 | 4.0 | 0.00 | 0.00 | 0.00 | 40 | 1016.5 |
| 20260510172502 | 81 | 281 | 3.0 | 8.0 | 0.00 | 0.00 | 0.00 | 39 | 1016.6 |
| 20260510172004 | 80 | 282 | 2.0 | 6.0 | 0.00 | 0.00 | 0.00 | 40 | 1016.6 |
| 20260510171502 | 80 | 32 | 2.0 | 5.0 | 0.00 | 0.00 | 0.00 | 40 | 1016.6 |
| 20260510171001 | 80 | 337 | 2.0 | 5.0 | 0.00 | 0.00 | 0.00 | 41 | 1016.5 |
| 20260510170502 | 80 | 120 | 2.0 | 5.0 | 0.00 | 0.00 | 0.00 | 39 | 1016.6 |
| 20260510170004 | 81 | 321 | 0.0 | 2.0 | 0.00 | 0.00 | 0.00 | 42 | 1016.6 |
| 20260510165504 | 81 | 355 | 1.0 | 4.0 | 0.00 | 0.00 | 0.00 | 47 | 1016.7 |
| 20260510165002 | 81 | 301 | 2.0 | 6.0 | 0.00 | 0.00 | 0.00 | 39 | 1016.5 |
| 20260510164502 | 81 | 190 | 2.0 | 6.0 | 0.00 | 0.00 | 0.00 | 39 | 1016.7 |
| 20260510163002 | 80 | 9 | 1.0 | 4.0 | 0.00 | 0.00 | 0.00 | 45 | 1016.8 |
| 20260510162003 | 80 | 284 | 1.0 | 4.0 | 0.00 | 0.00 | 0.00 | 41 | 1016.8 |
| 20260510161502 | 80 | 113 | 1.0 | 3.0 | 0.00 | 0.00 | 0.00 | 42 | 1016.9 |
| 20260510161002 | 80 | 74 | 1.0 | 3.0 | 0.00 | 0.00 | 0.00 | 45 | 1016.8 |
| 20260510160502 | 79 | 136 | 1.0 | 3.0 | 0.00 | 0.00 | 0.00 | 49 | 1016.9 |
| 20260510160004 | 79 | 285 | 1.0 | 3.0 | 0.00 | 0.00 | 0.00 | 42 | 1016.9 |
| 20260510155503 | 78 | 134 | 1.0 | 2.0 | 0.00 | 0.00 | 0.00 | 43 | 1017.0 |
| 20260510155001 | 78 | 292 | 1.0 | 7.0 | 0.00 | 0.00 | 0.00 | 45 | 1016.9 |
| 20260510154502 | 78 | 323 | 1.0 | 7.0 | 0.00 | 0.00 | 0.00 | 46 | 1016.9 |
| 20260510154001 | 78 | 132 | 1.0 | 3.0 | 0.00 | 0.00 | 0.00 | 51 | 1016.9 |
| 20260510153503 | 77 | 155 | 1.0 | 6.0 | 0.00 | 0.00 | 0.00 | 48 | 1017.0 |
| 20260510153001 | 77 | 327 | 1.0 | 6.0 | 0.00 | 0.00 | 0.00 | 45 | 1016.9 |
| 20260510152502 | 77 | 105 | 1.0 | 4.0 | 0.00 | 0.00 | 0.00 | 48 | 1016.8 |
| 20260510152001 | 77 | 100 | 1.0 | 4.0 | 0.00 | 0.00 | 0.00 | 50 | 1017.1 |
| 20260510151501 | 76 | 32 | 1.0 | 4.0 | 0.00 | 0.00 | 0.00 | 52 | 1017.0 |
| 20260510151002 | 76 | 108 | 1.0 | 6.0 | 0.00 | 0.00 | 0.00 | 53 | 1017.1 |
| 20260510150501 | 75 | 64 | 2.0 | 6.0 | 0.00 | 0.00 | 0.00 | 54 | 1017.0 |
| 20260510150004 | 75 | 52 | 1.0 | 4.0 | 0.00 | 0.00 | 0.00 | 59 | 1016.9 |
| 20260510145501 | 74 | 92 | 1.0 | 4.0 | 0.00 | 0.00 | 0.00 | 59 | 1016.8 |
| 20260510145003 | 74 | 340 | 1.0 | 3.0 | 0.00 | 0.00 | 0.00 | 56 | 1016.8 |
| 20260510144003 | 72 | 334 | 1.0 | 4.0 | 0.00 | 0.00 | 0.00 | 63 | 1016.8 |
| 20260510143501 | 71 | 107 | 1.0 | 4.0 | 0.00 | 0.00 | 0.00 | 66 | 1016.8 |
| 20260510143001 | 71 | 5 | 1.0 | 3.0 | 0.00 | 0.00 | 0.00 | 66 | 1016.6 |
| 20260510142501 | 70 | 333 | 1.0 | 3.0 | 0.00 | 0.00 | 0.00 | 74 | 1016.6 |
| 20260510142003 | 68 | 48 | 1.0 | 2.0 | 0.00 | 0.00 | 0.00 | 75 | 1016.6 |
| 20260510141501 | 67 | 126 | 0.0 | 2.0 | 0.00 | 0.00 | 0.00 | 79 | 1016.6 |
| 20260510135501 | 63 | 311 | 1.0 | 4.0 | 0.00 | 0.00 | 0.00 | 86 | 1016.6 |
| 20260510135004 | 62 | 66 | 1.0 | 6.0 | 0.00 | 0.00 | 0.00 | 90 | 1016.6 |
| 20260510134501 | 62 | 82 | 1.0 | 4.0 | 0.00 | 0.00 | 0.00 | 90 | 1016.6 |
| 20260510133501 | 61 | 86 | 0.0 | 1.0 | 0.00 | 0.00 | 0.00 | 97 | 1016.5 |
| 20260510133001 | 61 | 100 | 0.0 | 2.0 | 0.00 | 0.00 | 0.00 | 98 | 1016.5 |
| 20260510132502 | 61 | 100 | 0.0 | 2.0 | 0.00 | 0.00 | 0.00 | 97 | 1016.5 |
| 20260510131501 | 60 | 89 | 0.0 | 1.0 | 0.00 | 0.00 | 0.00 | 98 | 1016.6 |
| 20260510131001 | 60 | 89 | 0.0 | 2.0 | 0.00 | 0.00 | 0.00 | 98 | 1016.5 |
| 20260510130501 | 60 | 89 | 0.0 | 2.0 | 0.00 | 0.00 | 0.00 | 99 | 1016.5 |
| 20260510130004 | 60 | 67 | 0.0 | 2.0 | 0.00 | 0.00 | 0.00 | 98 | 1016.5 |
| 20260510125503 | 59 | 116 | 0.0 | 1.0 | 0.00 | 0.00 | 0.00 | 99 | 1016.4 |
| 20260510125001 | 59 | 257 | 0.0 | 0.0 | 0.00 | 0.00 | 0.00 | 99 | 1016.5 |
| 20260510124501 | 59 | 257 | 0.0 | 0.0 | 0.00 | 0.00 | 0.00 | 99 | 1016.5 |
| 20260510124003 | 58 | 257 | 0.0 | 0.0 | 0.00 | 0.00 | 0.00 | 98 | 1016.3 |
| 20260510123001 | 56 | 257 | 0.0 | 0.0 | 0.00 | 0.00 | 0.00 | 98 | 1016.2 |
| 20260510122501 | 56 | 257 | 0.0 | 0.0 | 0.00 | 0.00 | 0.00 | 98 | 1016.1 |
| 20260510122003 | 55 | 257 | 0.0 | 0.0 | 0.00 | 0.00 | 0.00 | 97 | 1016.3 |
| 20260510121501 | 55 | 257 | 0.0 | 0.0 | 0.00 | 0.00 | 0.00 | 97 | 1016.2 |
| 20260510121001 | 55 | 257 | 0.0 | 0.0 | 0.00 | 0.00 | 0.00 | 97 | 1016.2 |
| 20260510120501 | 55 | 257 | 0.0 | 0.0 | 0.00 | 0.00 | 0.00 | 97 | 1016.1 |
| 20260510120004 | 54 | 257 | 0.0 | 0.0 | 0.00 | 0.00 | 0.00 | 97 | 1016.0 |
| 20260510115501 | 54 | 257 | 0.0 | 0.0 | 0.00 | 0.00 | 0.00 | 97 | 1015.8 |
| 20260510115000 | 54 | 257 | 0.0 | 0.0 | 0.00 | 0.00 | 0.00 | 97 | 1015.8 |
| 20260510114501 | 54 | 257 | 0.0 | 0.0 | 0.00 | 0.00 | 0.00 | 96 | 1015.7 |
| 20260510114002 | 54 | 257 | 0.0 | 0.0 | 0.00 | 0.00 | 0.00 | 96 | 1015.5 |
| 20260510113500 | 54 | 257 | 0.0 | 0.0 | 0.00 | 0.00 | 0.00 | 96 | 1015.5 |
| 20260510113000 | 54 | 257 | 0.0 | 0.0 | 0.00 | 0.00 | 0.00 | 95 | 1015.5 |
| 20260510112502 | 54 | 257 | 0.0 | 0.0 | 0.00 | 0.00 | 0.00 | 95 | 1015.5 |
| 20260510112001 | 54 | 257 | 0.0 | 0.0 | 0.00 | 0.00 | 0.00 | 95 | 1015.5 |
| 20260510111500 | 54 | 257 | 0.0 | 0.0 | 0.00 | 0.00 | 0.00 | 95 | 1015.5 |
| 20260510111001 | 54 | 257 | 0.0 | 1.0 | 0.00 | 0.00 | 0.00 | 95 | 1015.4 |
| 20260510110500 | 54 | 257 | 0.0 | 1.0 | 0.00 | 0.00 | 0.00 | 95 | 1015.3 |
| 20260510110006 | 54 | 257 | 0.0 | 1.0 | 0.00 | 0.00 | 0.00 | 95 | 1015.2 |
| 20260510105500 | 54 | 257 | 0.0 | 1.0 | 0.00 | 0.00 | 0.00 | 95 | 1015.1 |
| 20260510105001 | 54 | 257 | 0.0 | 0.0 | 0.00 | 0.00 | 0.00 | 95 | 1015.0 |
| 20260510104502 | 54 | 257 | 0.0 | 0.0 | 0.00 | 0.00 | 0.00 | 95 | 1014.9 |
| 20260510103501 | 54 | 257 | 0.0 | 0.0 | 0.00 | 0.00 | 0.00 | 95 | 1014.8 |
| 20260510102503 | 54 | 257 | 0.0 | 0.0 | 0.00 | 0.00 | 0.00 | 95 | 1014.7 |
| 20260510102003 | 54 | 257 | 0.0 | 0.0 | 0.00 | 0.00 | 0.00 | 95 | 1014.7 |
| 20260510101501 | 55 | 257 | 0.0 | 0.0 | 0.00 | 0.00 | 0.00 | 95 | 1014.7 |
| 20260510101000 | 55 | 257 | 0.0 | 0.0 | 0.00 | 0.00 | 0.00 | 95 | 1014.6 |
| 20260510100501 | 55 | 257 | 0.0 | 0.0 | 0.00 | 0.00 | 0.00 | 95 | 1014.5 |
| 20260510100004 | 55 | 257 | 0.0 | 0.0 | 0.00 | 0.00 | 0.00 | 95 | 1014.5 |
| 20260510095504 | 55 | 257 | 0.0 | 1.0 | 0.00 | 0.00 | 0.00 | 95 | 1014.3 |
| 20260510095001 | 55 | 257 | 0.0 | 1.0 | 0.00 | 0.00 | 0.00 | 95 | 1014.3 |
| 20260510094503 | 55 | 257 | 0.0 | 0.0 | 0.00 | 0.00 | 0.00 | 95 | 1014.2 |
| 20260510094000 | 55 | 257 | 0.0 | 0.0 | 0.00 | 0.00 | 0.00 | 95 | 1014.2 |
| 20260510093501 | 55 | 257 | 0.0 | 0.0 | 0.00 | 0.00 | 0.00 | 95 | 1014.2 |
| 20260510093002 | 55 | 257 | 0.0 | 0.0 | 0.00 | 0.00 | 0.00 | 95 | 1014.2 |
| 20260510092500 | 55 | 257 | 0.0 | 0.0 | 0.00 | 0.00 | 0.00 | 95 | 1014.2 |
| 20260510091501 | 56 | 257 | 0.0 | 0.0 | 0.00 | 0.00 | 0.00 | 95 | 1013.8 |
| 20260510091001 | 56 | 257 | 0.0 | 0.0 | 0.00 | 0.00 | 0.00 | 94 | 1013.9 |
| 20260510090005 | 56 | 257 | 0.0 | 0.0 | 0.00 | 0.00 | 0.00 | 95 | 1013.8 |
| 20260510085501 | 56 | 257 | 0.0 | 0.0 | 0.00 | 0.00 | 0.00 | 95 | 1013.9 |
| 20260510085001 | 56 | 257 | 0.0 | 0.0 | 0.00 | 0.00 | 0.00 | 95 | 1013.8 |
| 20260510084002 | 56 | 257 | 0.0 | 0.0 | 0.00 | 0.00 | 0.00 | 94 | 1013.7 |
| 20260510083501 | 56 | 257 | 0.0 | 0.0 | 0.00 | 0.00 | 0.00 | 94 | 1013.7 |
| 20260510083001 | 56 | 257 | 0.0 | 0.0 | 0.00 | 0.00 | 0.00 | 94 | 1013.6 |
| 20260510082501 | 56 | 257 | 0.0 | 0.0 | 0.00 | 0.00 | 0.00 | 95 | 1013.5 |
| 20260510082003 | 56 | 257 | 0.0 | 0.0 | 0.00 | 0.00 | 0.00 | 95 | 1013.3 |
| 20260510081001 | 56 | 257 | 0.0 | 0.0 | 0.00 | 0.00 | 0.00 | 95 | 1013.2 |
| 20260510080501 | 57 | 257 | 0.0 | 0.0 | 0.00 | 0.00 | 0.00 | 95 | 1013.0 |
| 20260510080004 | 56 | 257 | 0.0 | 0.0 | 0.00 | 0.00 | 0.00 | 95 | 1013.2 |
| 20260510075001 | 57 | 257 | 0.0 | 0.0 | 0.00 | 0.00 | 0.00 | 94 | 1013.2 |
| 20260510074501 | 57 | 257 | 0.0 | 0.0 | 0.00 | 0.00 | 0.00 | 94 | 1013.2 |
| 20260510074002 | 57 | 257 | 0.0 | 0.0 | 0.00 | 0.00 | 0.00 | 94 | 1013.2 |
| 20260510073501 | 57 | 257 | 0.0 | 0.0 | 0.00 | 0.00 | 0.00 | 94 | 1013.1 |
| 20260510073000 | 57 | 257 | 0.0 | 0.0 | 0.00 | 0.00 | 0.00 | 94 | 1013.0 |
| 20260510072500 | 57 | 257 | 0.0 | 0.0 | 0.00 | 0.00 | 0.00 | 94 | 1012.9 |
| 20260510072002 | 57 | 257 | 0.0 | 0.0 | 0.00 | 0.00 | 0.00 | 94 | 1012.8 |
| 20260510071001 | 57 | 257 | 0.0 | 0.0 | 0.00 | 0.00 | 0.00 | 95 | 1012.8 |
| 20260510070500 | 57 | 257 | 0.0 | 0.0 | 0.00 | 0.00 | 0.00 | 94 | 1012.8 |
| 20260510070005 | 57 | 257 | 0.0 | 0.0 | 0.00 | 0.00 | 0.00 | 93 | 1012.9 |
| 20260510065501 | 57 | 257 | 0.0 | 0.0 | 0.00 | 0.00 | 0.00 | 93 | 1012.8 |
| 20260510064500 | 58 | 257 | 0.0 | 0.0 | 0.00 | 0.00 | 0.00 | 93 | 1013.1 |
| 20260510063500 | 58 | 257 | 0.0 | 0.0 | 0.00 | 0.00 | 0.00 | 93 | 1013.0 |
| 20260510063000 | 58 | 257 | 0.0 | 0.0 | 0.00 | 0.00 | 0.00 | 93 | 1013.0 |
| 20260510062500 | 58 | 257 | 0.0 | 0.0 | 0.00 | 0.00 | 0.00 | 94 | 1013.1 |
| 20260510062002 | 58 | 257 | 0.0 | 0.0 | 0.00 | 0.00 | 0.00 | 94 | 1013.1 |
| 20260510061501 | 58 | 257 | 0.0 | 0.0 | 0.00 | 0.00 | 0.00 | 94 | 1013.0 |
| 20260510060500 | 59 | 257 | 0.0 | 0.0 | 0.00 | 0.00 | 0.00 | 94 | 1013.1 |
| 20260510055500 | 59 | 257 | 0.0 | 0.0 | 0.00 | 0.00 | 0.00 | 93 | 1013.1 |
| 20260510055000 | 59 | 257 | 0.0 | 0.0 | 0.00 | 0.00 | 0.00 | 93 | 1013.1 |
| 20260510054500 | 59 | 257 | 0.0 | 0.0 | 0.00 | 0.00 | 0.00 | 93 | 1013.1 |
| 20260510054002 | 59 | 257 | 0.0 | 0.0 | 0.00 | 0.00 | 0.00 | 93 | 1013.2 |
| 20260510053500 | 59 | 257 | 0.0 | 0.0 | 0.00 | 0.00 | 0.00 | 94 | 1013.3 |
| 20260510052501 | 59 | 257 | 0.0 | 3.0 | 0.00 | 0.00 | 0.00 | 94 | 1013.3 |
| 20260510052002 | 59 | 273 | 1.0 | 4.0 | 0.00 | 0.00 | 0.00 | 94 | 1013.4 |
| 20260510051000 | 59 | 283 | 1.0 | 4.0 | 0.00 | 0.00 | 0.00 | 93 | 1013.5 |
| 20260510050500 | 59 | 232 | 0.0 | 2.0 | 0.00 | 0.00 | 0.00 | 93 | 1013.5 |
| 20260510050004 | 59 | 232 | 0.0 | 1.0 | 0.00 | 0.00 | 0.00 | 92 | 1013.5 |
| 20260510045000 | 59 | 302 | 0.0 | 0.0 | 0.00 | 0.00 | 0.00 | 92 | 1013.4 |
| 20260510044002 | 59 | 302 | 0.0 | 0.0 | 0.00 | 0.00 | 0.00 | 91 | 1013.3 |
| 20260510043000 | 59 | 302 | 0.0 | 0.0 | 0.00 | 0.00 | 0.00 | 91 | 1013.5 |
| 20260510042000 | 60 | 302 | 0.0 | 0.0 | 0.00 | 0.00 | 0.00 | 91 | 1013.3 |
| 20260510041002 | 60 | 302 | 0.0 | 0.0 | 0.00 | 0.00 | 0.00 | 91 | 1013.4 |
| 20260510040501 | 60 | 302 | 0.0 | 0.0 | 0.00 | 0.00 | 0.00 | 91 | 1013.4 |
| 20260510040007 | 60 | 302 | 0.0 | 0.0 | 0.00 | 0.00 | 0.00 | 91 | 1013.3 |
| 20260510035505 | 60 | 302 | 0.0 | 0.0 | 0.00 | 0.00 | 0.00 | 90 | 1013.3 |
| 20260510035003 | 61 | 302 | 0.0 | 0.0 | 0.00 | 0.00 | 0.00 | 90 | 1013.4 |
| 20260510034503 | 61 | 302 | 0.0 | 0.0 | 0.00 | 0.00 | 0.00 | 90 | 1013.2 |
| 20260510034004 | 61 | 302 | 0.0 | 0.0 | 0.00 | 0.00 | 0.00 | 90 | 1013.2 |
| 20260510033503 | 61 | 302 | 0.0 | 0.0 | 0.00 | 0.00 | 0.00 | 90 | 1013.3 |
| 20260510033005 | 61 | 302 | 0.0 | 0.0 | 0.00 | 0.00 | 0.00 | 90 | 1013.4 |
| 20260510032503 | 61 | 302 | 0.0 | 1.0 | 0.00 | 0.00 | 0.00 | 90 | 1013.3 |
| 20260510032003 | 61 | 302 | 0.0 | 2.0 | 0.00 | 0.00 | 0.00 | 90 | 1013.2 |
| 20260510031503 | 61 | 302 | 0.0 | 2.0 | 0.00 | 0.00 | 0.00 | 91 | 1013.2 |
| 20260510031005 | 62 | 302 | 0.0 | 0.0 | 0.00 | 0.00 | 0.00 | 91 | 1013.2 |
| 20260510030005 | 62 | 302 | 0.0 | 0.0 | 0.00 | 0.00 | 0.00 | 88 | 1013.2 |
| 20260510025505 | 62 | 302 | 0.0 | 0.0 | 0.00 | 0.00 | 0.00 | 87 | 1013.2 |
| 20260510025003 | 62 | 302 | 0.0 | 0.0 | 0.00 | 0.00 | 0.00 | 87 | 1013.1 |
| 20260510024503 | 62 | 302 | 0.0 | 0.0 | 0.00 | 0.00 | 0.00 | 87 | 1013.2 |
| 20260510024004 | 63 | 302 | 0.0 | 0.0 | 0.00 | 0.00 | 0.00 | 87 | 1013.2 |
| 20260510023003 | 63 | 302 | 0.0 | 2.0 | 0.00 | 0.00 | 0.00 | 86 | 1013.2 |
| 20260510022005 | 63 | 318 | 0.0 | 1.0 | 0.00 | 0.00 | 0.00 | 86 | 1013.0 |
| 20260510021503 | 63 | 318 | 0.0 | 1.0 | 0.00 | 0.00 | 0.00 | 86 | 1012.9 |
| 20260510020503 | 64 | 318 | 0.0 | 0.0 | 0.00 | 0.00 | 0.00 | 87 | 1012.8 |
| 20260510020008 | 64 | 318 | 0.0 | 2.0 | 0.00 | 0.00 | 0.00 | 87 | 1012.7 |
| 20260510015503 | 64 | 318 | 0.0 | 2.0 | 0.00 | 0.00 | 0.00 | 85 | 1012.7 |
| 20260510014504 | 64 | 213 | 1.0 | 3.0 | 0.00 | 0.00 | 0.00 | 85 | 1012.6 |
| 20260510014002 | 64 | 221 | 1.0 | 5.0 | 0.00 | 0.00 | 0.00 | 85 | 1012.5 |
| 20260510013503 | 65 | 292 | 1.0 | 3.0 | 0.00 | 0.00 | 0.00 | 85 | 1012.4 |
| 20260510012505 | 65 | 283 | 1.0 | 3.0 | 0.00 | 0.00 | 0.00 | 84 | 1012.4 |
| 20260510012003 | 65 | 255 | 0.0 | 3.0 | 0.00 | 0.00 | 0.00 | 84 | 1012.4 |
| 20260510011502 | 65 | 325 | 1.0 | 3.0 | 0.00 | 0.00 | 0.00 | 83 | 1012.4 |
| 20260510011003 | 65 | 288 | 1.0 | 3.0 | 0.00 | 0.00 | 0.00 | 83 | 1012.3 |
| 20260510010504 | 66 | 289 | 0.0 | 3.0 | 0.00 | 0.00 | 0.00 | 82 | 1012.2 |
| 20260510005503 | 66 | 263 | 0.0 | 1.0 | 0.00 | 0.00 | 0.00 | 82 | 1012.3 |
| 20260510005004 | 66 | 273 | 0.0 | 2.0 | 0.00 | 0.00 | 0.00 | 82 | 1012.2 |
| 20260510004503 | 66 | 273 | 1.0 | 2.0 | 0.00 | 0.00 | 0.00 | 82 | 1012.2 |
| 20260510004003 | 66 | 265 | 2.0 | 3.0 | 0.00 | 0.00 | 0.00 | 82 | 1012.2 |
| 20260510003503 | 67 | 285 | 2.0 | 4.0 | 0.00 | 0.00 | 0.00 | 81 | 1012.1 |
| 20260510003004 | 67 | 280 | 2.0 | 4.0 | 0.00 | 0.00 | 0.00 | 81 | 1012.1 |
| 20260510002503 | 67 | 287 | 1.0 | 3.0 | 0.00 | 0.00 | 0.00 | 81 | 1012.1 |
| 20260510002003 | 67 | 286 | 0.0 | 2.0 | 0.00 | 0.00 | 0.00 | 80 | 1011.9 |
| 20260510001005 | 68 | 238 | 0.0 | 2.0 | 0.00 | 0.00 | 0.00 | 79 | 1011.8 |
| 20260510000503 | 68 | 238 | 0.0 | 2.0 | 0.00 | 0.00 | 0.00 | 79 | 1011.6 |
| 20260510000006 | 68 | 311 | 0.0 | 2.0 | 0.00 | 0.00 | 0.00 | 79 | 1011.5 |
| 20260509235504 | 68 | 270 | 0.0 | 2.0 | 0.00 | 0.00 | 0.00 | 79 | 1011.5 |
| 20260509234503 | 69 | 264 | 0.0 | 3.0 | 0.00 | 0.00 | 0.00 | 78 | 1011.2 |
| 20260509234002 | 69 | 207 | 0.0 | 3.0 | 0.00 | 0.00 | 0.00 | 78 | 1011.1 |
| 20260509233003 | 69 | 214 | 1.0 | 4.0 | 0.00 | 0.00 | 0.00 | 77 | 1011.1 |
| 20260509232503 | 70 | 171 | 1.0 | 4.0 | 0.00 | 0.00 | 0.00 | 77 | 1011.0 |
| 20260509232004 | 70 | 290 | 1.0 | 3.0 | 0.00 | 0.00 | 0.00 | 77 | 1010.9 |
| 20260509231503 | 70 | 274 | 1.0 | 3.0 | 0.00 | 0.00 | 0.00 | 76 | 1011.0 |
| 20260509230503 | 70 | 119 | 1.0 | 3.0 | 0.00 | 0.00 | 0.00 | 76 | 1010.7 |
| 20260509225501 | 70 | 249 | 1.0 | 3.0 | 0.00 | 0.00 | 0.00 | 76 | 1011.0 |
| 20260509225001 | 70 | 292 | 1.0 | 3.0 | 0.00 | 0.00 | 0.00 | 76 | 1011.0 |
| 20260509224501 | 70 | 246 | 1.0 | 3.0 | 0.00 | 0.00 | 0.00 | 75 | 1010.9 |
| 20260509224004 | 70 | 241 | 1.0 | 4.0 | 0.00 | 0.00 | 0.00 | 75 | 1010.9 |
| 20260509223502 | 70 | 168 | 1.0 | 3.0 | 0.00 | 0.00 | 0.00 | 75 | 1010.9 |
| 20260509223001 | 71 | 165 | 1.0 | 4.0 | 0.00 | 0.00 | 0.00 | 75 | 1010.9 |
| 20260509222005 | 71 | 167 | 1.0 | 6.0 | 0.00 | 0.00 | 0.00 | 75 | 1010.9 |
| 20260509221502 | 71 | 281 | 2.0 | 6.0 | 0.00 | 0.00 | 0.00 | 74 | 1010.7 |
| 20260509221002 | 71 | 217 | 3.0 | 9.0 | 0.00 | 0.00 | 0.00 | 74 | 1010.7 |
| 20260509220502 | 71 | 259 | 3.0 | 9.0 | 0.00 | 0.00 | 0.00 | 73 | 1010.7 |
| 20260509220006 | 71 | 141 | 3.0 | 11.0 | 0.00 | 0.00 | 0.00 | 73 | 1010.6 |
| 20260509215001 | 71 | 266 | 3.0 | 11.0 | 0.00 | 0.00 | 0.00 | 72 | 1010.6 |
| 20260509214505 | 71 | 261 | 2.0 | 9.0 | 0.00 | 0.00 | 0.00 | 73 | 1010.5 |
| 20260509214002 | 71 | 176 | 4.0 | 11.0 | 0.00 | 0.00 | 0.00 | 72 | 1010.4 |
| 20260509213502 | 71 | 355 | 4.0 | 11.0 | 0.00 | 0.00 | 0.00 | 73 | 1010.3 |
| 20260509213004 | 71 | 279 | 3.0 | 10.0 | 0.00 | 0.00 | 0.00 | 71 | 1010.3 |
| 20260509212502 | 72 | 242 | 3.0 | 10.0 | 0.00 | 0.00 | 0.00 | 71 | 1010.3 |
| 20260509211502 | 72 | 290 | 2.0 | 5.0 | 0.00 | 0.00 | 0.00 | 72 | 1010.3 |
| 20260509211003 | 72 | 229 | 2.0 | 8.0 | 0.00 | 0.00 | 0.00 | 72 | 1010.3 |
| 20260509210004 | 73 | 296 | 2.0 | 8.0 | 0.00 | 0.00 | 0.00 | 70 | 1010.3 |
| 20260509205503 | 73 | 268 | 2.0 | 6.0 | 0.00 | 0.00 | 0.00 | 72 | 1010.1 |
| 20260509205002 | 72 | 219 | 2.0 | 8.0 | 0.00 | 0.00 | 0.00 | 72 | 1010.0 |
| 20260509204502 | 72 | 118 | 3.0 | 8.0 | 0.00 | 0.00 | 0.00 | 71 | 1010.2 |
| 20260509204002 | 73 | 274 | 3.0 | 14.0 | 0.00 | 0.00 | 0.00 | 70 | 1010.4 |
| 20260509203504 | 73 | 192 | 3.0 | 14.0 | 0.00 | 0.00 | 0.00 | 70 | 1010.3 |
| 20260509203002 | 74 | 263 | 3.0 | 9.0 | 0.00 | 0.00 | 0.00 | 69 | 1010.2 |
| 20260509202502 | 75 | 153 | 2.0 | 9.0 | 0.00 | 0.00 | 0.00 | 68 | 1010.4 |
| 20260509202002 | 75 | 227 | 2.0 | 5.0 | 0.00 | 0.00 | 0.00 | 68 | 1010.6 |
| 20260509201503 | 75 | 206 | 1.0 | 7.0 | 0.00 | 0.00 | 0.00 | 69 | 1010.4 |
| 20260509201002 | 75 | 220 | 3.0 | 10.0 | 0.00 | 0.00 | 0.00 | 68 | 1010.5 |
| 20260509200501 | 75 | 295 | 3.0 | 10.0 | 0.00 | 0.00 | 0.00 | 66 | 1010.6 |
| 20260509200004 | 75 | 298 | 3.0 | 10.0 | 0.00 | 0.00 | 0.00 | 67 | 1010.6 |
| 20260509195504 | 75 | 291 | 3.0 | 10.0 | 0.00 | 0.00 | 0.00 | 67 | 1010.5 |
| 20260509194502 | 74 | 255 | 2.0 | 8.0 | 0.00 | 0.00 | 0.00 | 73 | 1010.6 |
| 20260509194002 | 73 | 216 | 3.0 | 10.0 | 0.00 | 0.00 | 0.00 | 71 | 1010.7 |
| 20260509193003 | 73 | 290 | 2.0 | 9.0 | 0.00 | 0.00 | 0.00 | 71 | 1010.8 |
| 20260509192502 | 73 | 288 | 2.0 | 4.0 | 0.00 | 0.00 | 0.00 | 71 | 1010.8 |
| 20260509191002 | 73 | 300 | 2.0 | 9.0 | 0.00 | 0.00 | 0.00 | 72 | 1010.9 |
| 20260509190006 | 73 | 273 | 1.0 | 5.0 | 0.00 | 0.00 | 0.00 | 72 | 1010.7 |